[Iaude] MPEC R151: 2023 RK5 [a=1.48,e=0.41,i=0.6,H=29.0]

mpec at marsden.cfa.harvard.edu mpec at marsden.cfa.harvard.edu
Mon Sep 11 20:27:00 EDT 2023


M.P.E.C. 2023-R151                           Issued 2023 September 12, 00:25 UT

     The Minor Planet Electronic Circulars contain information on unusual
         minor planets, routine data on comets and natural satellites,
         and occasional editorial announcements.  They are published
    on behalf of Division F of the International Astronomical Union by the
          Minor Planet Center, Smithsonian Astrophysical Observatory,
                          Cambridge, MA 02138, U.S.A.
			  
             Prepared using the Tamkin Foundation Computer Network

                              MPC at CFA.HARVARD.EDU
            URL https://www.minorplanetcenter.net/    ISSN 1523-6714

                                    2023 RK5                                    


Observations:
     K23R05K*KC2023 09 10.88980 00 09 09.38 +12 42 43.1          19.6 GXER151L51
     K23R05K KC2023 09 10.89152 00 09 09.89 +12 41 52.6          19.5 GXER151L51
     K23R05K KC2023 09 10.89332 00 09 10.41 +12 41 00.0          19.5 GXER151L51
     K23R05K KC2023 09 10.93047 00 09 20.47 +12 23 19.9          19.3 GXER151L51
     K23R05K KC2023 09 10.93207 00 09 20.89 +12 22 35.4          19.4 GXER151L51
     K23R05K KC2023 09 10.93380 00 09 21.32 +12 21 46.5          19.6 GXER151L51
     K23R05K KC2023 09 10.94923200 09 41.91 +12 14 26.7          19.3 GVER151L01
     K23R05K KC2023 09 10.95071500 09 42.29 +12 13 46.6          19.4 GVER151L01
     K23R05K KC2023 09 10.95219800 09 42.67 +12 13 06.5          19.4 GVER151L01
     K23R05K KC2023 09 10.95368300 09 43.03 +12 12 26.0          19.5 GVER151L01
     K23R05K KC2023 09 10.95516600 09 43.42 +12 11 45.9          19.5 GVER151L01
     K23R05K KC2023 09 10.95916 00 09 39.76 +12 09 05.4          19.9 GXER151G02
     K23R05K KC2023 09 10.96316 00 09 40.80 +12 07 18.8          19.7 GXER151G02
     K23R05K KC2023 09 10.96716 00 09 41.90 +12 05 33.0          19.6 GXER151G02
     K23R05K 1C2023 09 10.96797 00 09 47.14 +12 04 43.9          19.8 VXER151033
     K23R05K 1C2023 09 10.96826 00 09 47.22 +12 04 36.3          19.8 VXER151033
     K23R05K 1C2023 09 10.96854 00 09 47.30 +12 04 28.8          19.6 VXER151033
     K23R05K 1C2023 09 10.96892 00 09 47.39 +12 04 18.8          19.4 VXER151033
     K23R05K KC2023 09 10.99304000 09 54.95 +11 55 23.1          19.6 GVER151104
     K23R05K KC2023 09 10.99743800 09 55.95 +11 53 29.1          19.5 GVER151104
     K23R05K KC2023 09 11.00184700 09 56.92 +11 51 36.0          19.8 GVER151104
     K23R05K  C2023 09 11.24024100 12 14.731+10 24 12.08         20.1 GVER151654
     K23R05K  C2023 09 11.24425100 12 15.354+10 22 55.99         20.1 GVER151654
     K23R05K KC2023 09 11.26359200 11 55.59 +10 16 11.0          20.7 VuER151H21
     K23R05K KC2023 09 11.26639500 11 55.88 +10 15 18.2          20.6 VuER151H21
     K23R05K KC2023 09 11.26919300 11 56.16 +10 14 25.3          20.6 VuER151H21
     K23R05K KC2023 09 11.27189800 11 56.45 +10 13 34.5          20.5 VuER151H21
     K23R05K  C2023 09 11.31988700 12 23.598+09 59 49.92         20.3 GVER151654
     K23R05K  C2023 09 11.32401900 12 23.908+09 58 36.49         20.3 GVER151654
     K23R05K  C2023 09 11.37243100 12 58.150+09 47 07.41         20.17wXER151F52
     K23R05K  C2023 09 11.39403500 12 59.339+09 41 10.61         20.15wXER151F52
     K23R05K  C2023 09 11.40486900 12 59.762+09 38 13.52         20.04wXER151F52
     K23R05K KC2023 09 11.82385 00 14 52.07 +07 58 14.4          20.2 GXER151L51
     K23R05K KC2023 09 11.82735 00 14 52.30 +07 57 35.5          20.4 GXER151L51
     K23R05K KC2023 09 11.83064 00 14 52.52 +07 56 59.6          20.1 GXER151L51
     K23R05K 1C2023 09 11.87931 00 15 01.90 +07 47 13.3          20.7 VXER151033
     K23R05K 1C2023 09 11.88041 00 15 01.99 +07 47 02.1          20.8 VXER151033
     K23R05K 1C2023 09 11.88150 00 15 02.09 +07 46 50.4          20.6 VXER151033

Observer details:
033 Karl Schwarzschild Observatory, Tautenburg.  Observers S. Melnikov, C.
    Hoegner, F. Ludwig, M. Hartmann, B. Stecklum.  Measurer B. Stecklum.
    1.34-m f/3 Schmidt + CCD.
104 San Marcello Pistoiese.  Observers P. Bacci, M. Maestripieri.  Measurers
    P. Bacci, L. Tesi, G. Fagioli.  0.60-m F4 Reflector + CCD.
654 Table Mountain Observatory, Wrightwood-PHMC.  Observers N. Evans, P. Choi,
    N. Saini, C. Zhai, R. Trahan, M. Shao.  1.0-m Reflector + CCD.
F52 Pan-STARRS 2, Haleakala.  Observers J. Bulger, T. Lowe, P. Minguez, A.
    Schultz, I. Smith.  Measurers K. Chambers, T. de Boer, J. Bulger, J.
    Fairlamb, H. Gao, M. Huber, C.-C. Lin, T. Lowe, E. Magnier, P. Minguez, Y.
    Ramanjooloo, A. Schultz, I. Smith, R. Wainscoat, R. Weryk.  1.8-m Ritchey-
    Chretien + CCD.
G02 KYSUCE Observatory, Kysucke Nove Mesto.  Observer M. Urbanik.  0.40-m
    f/6.8 Corrected Dall-Kirkham + CCD.
H21 Astronomical Research Observatory, Westfield.  Observer R. Holmes.
    Measurers T. Linder, R. Holmes, L. Horn.  0.76-m f/3.0 astrograph + CCD.
L01 Visnjan Observatory, Tican.  Observers K. Korlevic, G. Kervina.  Measurer
    K. Korlevic.  1.0-m f/2.9 reflector + CCD.
L51 MARGO, Nauchnyi.  Observer G. Borisov.  0.50-m f/1.9 reflector + CCD.

Orbital elements:
2023 RK5                                                 Earth MOID = 0.0019 AU
Epoch 2023 Sept. 13.0 TT = JDT 2460200.5                Veres                   
M  25.62341              (2000.0)            P               Q                  
n   0.54672987     Peri.  113.96850     +0.34803568     +0.93748105             
a   1.4812244      Node   176.39852     -0.86393776     +0.32100928             
e   0.4060111      Incl.    0.60873     -0.36398174     +0.13447051             
P   1.80           H   29.01          G   0.15           U   7                  
Residuals in seconds of arc
230910 L51  0.1-  2.0-    230910 G02  0.8-  2.1+    230911 H21  0.0   0.4+
230910 L51  0.1+  2.3-    230910 033  0.1+  0.3-    230911 654  0.1+  0.0
230910 L51  0.2+  2.4-    230910 033  0.1+  0.2-    230911 654  0.1+  0.1-
230910 L51  0.2+  1.5-    230910 033  0.1+  0.3-    230911 F52  0.0   0.1-
230910 L51  0.3+  1.2-    230910 033  0.1-  0.2-    230911 F52  0.0   0.1+
230910 L51  0.1+  1.8-    230910 104  0.0   0.2+    230911 F52  0.0   0.0
230910 L01  0.2-  0.3+    230910 104  0.4+  0.3-    230911 L51  0.1-  0.0
230910 L01  0.1-  0.3+    230911 104  0.4+  0.2-    230911 L51  0.2-  0.6-
230910 L01  0.1-  0.3+    230911 654  0.0   0.0     230911 L51  0.2-  0.5-
230910 L01  0.4-  0.1-    230911 654  0.0   0.2-    230911 033  0.0   0.1+
230910 L01  0.1-  0.3-    230911 H21  0.1-  0.0     230911 033  0.0   0.4+
230910 G02  0.9-  0.5+    230911 H21  0.1-  0.3+    230911 033  0.1+  0.1+
230910 G02  1.4-  1.1+    230911 H21  0.2-  0.2+

Ephemeris:
2023 RK5                 a,e,i = 1.48, 0.41, 1                   q = 0.8798
Date    TT    R. A. (2000) Decl.     Delta      r    Elong.  Phase     V
2023 08 13    12 11 04.7 -00 18 04   0.1655  0.8993    43.0   129.8    30.6
...
2023 08 28    12 21 31.1 -00 27 20   0.07277 0.9487    31.0   146.7    31.1
...
2023 09 05    12 26 12.9 +02 01 29   0.02583 0.9849    23.7   155.7    30.7
...
2023 09 11    00 09 54.3 +12 01 10   0.0091741.0155   158.2    21.6    19.9
2023 09 12    00 15 07.0 +07 33 45   0.01488 1.0208   161.4    18.3    20.9
2023 09 13    00 17 21.0 +05 34 22   0.02064 1.0262   163.1    16.6    21.5
...
2023 09 19    00 20 26.3 +02 17 48   0.05564 1.0596   169.9     9.6    23.5
...
2023 09 27    00 20 34.2 +01 21 29   0.1041  1.1066   177.9     1.9    24.5
...
2023 10 12    00 20 54.6 +00 58 27   0.2050  1.1989   167.0    10.8    26.6

M. P. C. Staff               (C) Copyright 2023 MPC           M.P.E.C. 2023-R151





More information about the Iaude mailing list